Retour au catalogue

SL-8 DEB

ActifPO
NORAD 43336·DEBRIS·🇷🇺 Russia

Lancé Apr 4, 1989 depuis Plesetsk Cosmodrome

Loading…

Prochains Passages (prochaines 24 heures)

TLE

FraisSource: Space-Track

Époque: Sep 13, 2026, 01:57 UTC

1 43336U 89050C   26256.08158467  .00000336  00000-0  30486-3 0  9997
2 43336  82.9569 181.4956 0044824  72.1487 288.4554 13.80203520561748

Suivez SL-8 DEB en temps réel avec AllMySat

Download on the App Store